TimeCST,TemperatureF,Dew PointF,Humidity,Sea Level PressureIn,VisibilityMPH,Wind Direction,Wind SpeedMPH,Gust SpeedMPH,PrecipitationIn,Events,Conditions,WindDirDegrees,DateUTC
12:53 AM,52.0,44.1,74,30.09,10.0,South,3.5,-,N/A,,Clear,170,2012-11-10 06:53:00
1:53 AM,52.0,43.0,71,30.08,10.0,South,4.6,-,N/A,,Clear,190,2012-11-10 07:53:00
2:53 AM,50.0,42.1,74,30.09,10.0,SSE,3.5,-,N/A,,Clear,160,2012-11-10 08:53:00
3:53 AM,50.0,43.0,77,30.09,10.0,SE,3.5,-,N/A,,Clear,140,2012-11-10 09:53:00
4:53 AM,46.9,43.0,86,30.10,10.0,Calm,Calm,-,N/A,,Clear,0,2012-11-10 10:53:00
5:53 AM,51.1,45.0,80,30.10,10.0,South,6.9,-,N/A,,Clear,170,2012-11-10 11:53:00
6:53 AM,51.1,46.0,83,30.12,10.0,South,4.6,-,N/A,,Clear,170,2012-11-10 12:53:00
7:53 AM,55.0,48.9,80,30.14,10.0,South,5.8,-,N/A,,Mostly Cloudy,180,2012-11-10 13:53:00
8:53 AM,60.1,53.1,78,30.14,10.0,SSW,11.5,17.3,N/A,,Scattered Clouds,200,2012-11-10 14:53:00
9:49 AM,64.4,55.4,73,30.13,10.0,South,11.5,-,N/A,,Mostly Cloudy,190,2012-11-10 15:49:00
9:53 AM,66.0,55.0,68,30.13,10.0,SSW,9.2,-,N/A,,Mostly Cloudy,200,2012-11-10 15:53:00
10:13 AM,66.2,55.4,68,30.13,10.0,SSW,20.7,27.6,N/A,,Scattered Clouds,200,2012-11-10 16:13:00
10:53 AM,68.0,57.0,68,30.11,10.0,SSW,23.0,29.9,N/A,,Partly Cloudy,210,2012-11-10 16:53:00
11:53 AM,70.0,55.9,61,30.09,10.0,SW,18.4,27.6,N/A,,Clear,220,2012-11-10 17:53:00
12:53 PM,72.0,55.9,57,30.07,10.0,SSW,17.3,26.5,N/A,,Clear,210,2012-11-10 18:53:00
1:53 PM,73.0,55.9,55,30.05,10.0,SSW,16.1,23.0,N/A,,Clear,210,2012-11-10 19:53:00
2:53 PM,73.0,53.1,49,30.03,10.0,South,17.3,24.2,N/A,,Clear,190,2012-11-10 20:53:00
3:53 PM,72.0,53.1,51,30.04,10.0,South,11.5,21.9,N/A,,Clear,180,2012-11-10 21:53:00
4:53 PM,69.1,52.0,54,30.04,10.0,South,10.4,-,N/A,,Clear,170,2012-11-10 22:53:00
5:53 PM,66.9,48.9,52,30.06,10.0,South,10.4,-,N/A,,Clear,170,2012-11-10 23:53:00
6:53 PM,64.0,48.9,58,30.08,10.0,SSE,8.1,-,N/A,,Clear,160,2012-11-11 00:53:00
7:53 PM,63.0,48.9,60,30.06,10.0,SSE,9.2,-,N/A,,Clear,160,2012-11-11 01:53:00
8:53 PM,61.0,48.9,64,30.06,10.0,SSE,11.5,-,N/A,,Clear,150,2012-11-11 02:53:00
10:53 PM,60.1,48.9,67,30.04,10.0,SSE,10.4,-,N/A,,Clear,160,2012-11-11 04:53:00
11:53 PM,60.1,50.0,69,30.04,10.0,South,10.4,-,N/A,,Clear,170,2012-11-11 05:53:00